Salters, South Carolina
Current Conditions -  °F | °C
As of 8:55 PM on Saturday 20 Dec 2014 (Local Time) from KCKI Reporting Station
NA  
Wind Chill: 46°   Ceiling: NA
Heat Index: 46°   Visibility: 10mi
Dew Point: 46°   Wind: 3mph
Humidity: 100%   Direction: 20°NNE
Pressure: 30.26"   Gusts: NA
Location:  33.59°N, 79.86°W
Report Text: KCKI 210155Z AUTO 02003KT 10SM 08/08 A3026 RMK AO2
Loading
Personal Weather Stations






























Interactive Weather Map New forecast layout! Learn more

10-Day Weather Forecast

Advertisements
Track Severe Weather on mobile